[[{"header":{"parameterUnit":"m.s-1","parameterCategory":1,"la1":30.2991,"la2":30.254,"lo1":-89.0895,"lo2":-89.0444,"dy":0.0017,"dx":0.0017,"nx":28,"ny":28,"refTime":"2024-05-10T21:00:00:Z","depth":0,"parameterNumber":2,"parameterNumberName":"U-component_of_WINDS"},"data":[0,0,0,0,0,0,0,0,0,0,0,0,0,0,0,0,0,0,0,0,0,0,0,0,0,0,0,0,0,0,0,0,0,0,0,0,0,0,0,0,0,0,0,0,0,0,0,0,0,0,0,0,0,0,0,0,0,0,-4.1511,-4.1512,0,-4.1573,-4.1574,-4.1575,-4.1409,-4.1404,-4.1399,-4.1394,-4.146,-4.1467,-4.1473,0,0,0,0,0,0,0,0,0,0,0,0,0,-4.125,-4.1256,-4.1511,-4.1512,-4.1512,-4.1573,-4.1574,-4.1575,-4.141,-4.1404,-4.1398,-4.1392,-4.1458,-4.1466,-4.1474,0,0,0,0,0,0,0,0,0,0,0,0,0,-4.1343,-4.1258,-4.1511,-4.1437,-4.1431,-4.1573,-4.1574,-4.1575,-4.1412,-4.1404,-4.1396,-4.1389,-4.1456,-4.1465,-4.1475,-4.1691,0,0,-4.1505,-4.1509,0,0,0,0,0,0,0,0,-4.1338,-4.1353,-4.1447,-4.1443,-4.1436,-4.1475,-4.1506,-4.1614,-4.1413,-4.1419,-4.1394,-4.1385,-4.1472,-4.148,-4.1509,-4.1694,-4.1697,-4.1506,-4.1512,-4.1516,-4.1519,0,0,0,0,0,0,0,-4.1332,-4.1349,-4.1536,-4.1449,-4.1442,-4.1402,-4.1407,-4.1526,-4.1488,-4.1418,-4.1406,-4.1416,-4.1467,-4.15,-4.1509,-4.1698,-4.1506,-4.1515,-4.1521,-4.1524,-4.2064,-4.2072,0,0,0,0,0,0,-4.1335,-4.1345,-4.1534,-4.1537,-4.1367,-4.1413,-4.1418,-4.1471,-4.1487,-4.1481,-4.1422,-4.1408,-4.1487,-4.1498,-4.1511,-4.1764,-4.1516,-4.1525,-4.1531,-4.2056,-4.2066,-4.2075,0,0,0,0,0,0,-4.133,-4.1353,-4.1531,-4.1438,-4.1458,-4.1426,-4.1486,-4.1476,-4.1508,-4.149,-4.1482,-4.1462,-4.1481,-4.1497,-4.1647,-4.1764,-4.153,-4.1539,-4.2046,-4.2059,-4.207,-4.2274,0,0,0,0,0,0,-4.1323,-4.1352,-4.1434,-4.1441,-4.1463,-4.1667,-4.1493,-4.1483,-4.1525,-4.1507,-4.1525,-4.1521,-4.1476,-4.1633,-4.1657,-4.1774,-4.1547,-4.2035,-4.2051,-4.2066,-4.2257,-4.2292,-4.2322,0,0,0,0,0,-4.1314,-4.1489,-4.1439,-4.1462,-4.1564,-4.1674,-4.1686,-4.1631,-4.1536,-4.1617,-4.1605,-4.152,-4.1748,-4.165,-4.1675,-4.1797,-4.2027,-4.2047,-4.2065,-4.2242,-4.2285,-4.2321,0,0,0,0,0,0,-4.1497,-4.1489,-4.1433,-4.1615,-4.1646,-4.1645,-4.1747,-4.1678,-4.1737,-4.1718,-4.1647,-4.1653,-4.1816,-4.1821,-4.1713,-4.2007,-4.1871,-4.1896,-4.1997,-4.2038,-4.207,-4.2065,-4.1555,0,0,0,0,0,-4.1558,-4.1647,-4.1635,-4.1797,-4.1816,-4.178,-4.1825,-4.1779,-4.1809,-4.1822,-4.182,-4.1853,-4.1932,-4.1985,-4.2057,-4.2257,-4.2258,-4.2353,-4.2386,-4.2413,-4.2435,-4.2541,-4.2583,-4.2137,-4.2137,-4.2136,0,0,-4.1686,-4.1692,-4.1753,-4.1834,-4.1853,-4.1947,-4.1791,-4.1898,-4.1967,-4.1838,-4.1979,-4.198,-4.2012,-4.2188,-4.2266,-4.2198,-4.2558,-4.2437,-4.2458,-4.2466,-4.2565,-4.2607,-4.2644,-4.215,-4.2147,-4.2145,0,0,-4.1966,-4.1981,-4.2117,-4.2139,-4.2169,-4.2144,-4.2177,-4.2187,-4.2182,-4.2323,-4.2228,-4.231,-4.2447,-4.2474,-4.2505,-4.2797,-4.2721,-4.2823,-4.2994,-4.3098,-4.3133,-4.3164,-4.3268,-4.3306,-4.2845,-4.2845,-4.2846,0,-4.2122,-4.2259,-4.2196,-4.2309,-4.2347,-4.2234,-4.2372,-4.2397,-4.245,-4.2479,-4.2402,-4.2572,-4.2585,-4.2766,-4.2837,-4.2867,-4.2902,-4.282,-4.3133,-4.3163,-4.3191,-4.3289,-4.3328,-4.2858,-4.2856,-4.2855,-4.2854,0,-4.2448,-4.2545,-4.2651,-4.2704,-4.2755,-4.288,-4.2836,-4.2896,-4.2846,-4.2829,-4.2975,-4.2987,-4.3059,-4.3099,-4.3052,-4.3273,-4.323,-4.3145,-4.3007,-4.3247,-4.3338,-4.3375,-4.2875,-4.2871,-4.2867,-4.2864,0,0,-4.2844,-4.2861,-4.2901,-4.2924,-4.2949,-4.3023,-4.3144,-4.3213,-4.3265,-4.3306,-4.3405,-4.3524,-4.3445,-4.3481,-4.3436,-4.3528,-4.3758,-4.343,-4.343,-4.349,-4.4003,-4.4066,-4.4111,-4.3708,-4.3715,-4.372,-4.4,0,-4.3121,-4.3325,-4.3273,-4.3477,-4.3566,-4.346,-4.3565,-4.3592,-4.358,-4.3654,-4.364,-4.3726,-4.3615,-4.3636,-4.3722,-4.3712,-4.386,-4.3691,-4.3799,-4.3804,-4.3794,-4.4158,-4.4226,-4.4489,-4.4035,-4.4041,-4.4045,0,-4.347,-4.3523,-4.3737,-4.3747,-4.3783,-4.3878,-4.3937,-4.4009,-4.4039,-4.4023,-4.4064,-4.4001,-4.412,-4.3983,-4.4146,-4.4033,-4.4074,-4.4076,-4.4085,-4.4092,-4.3939,-4.4175,-4.4571,-4.4611,-4.4101,-4.4096,-4.4092,0,-4.3737,-4.3862,-4.4006,-4.4029,-4.4045,-4.4114,-4.4125,-4.4146,-4.4191,-4.4244,-4.4273,-4.434,-4.4376,-4.4429,-4.4386,-4.429,-4.4557,-4.4416,-4.4548,-4.4549,-4.4608,-4.4604,-4.5016,-4.4637,-4.4636,-4.4635,-4.4634,0,-4.405,-4.4185,-4.4126,-4.4214,-4.4362,-4.43,-4.4448,-4.4446,-4.4467,-4.4553,-4.4467,-4.455,-4.4488,-4.4567,-4.4534,-4.4675,-4.4692,-4.4683,-4.4673,-4.469,-4.4692,-4.4716,-4.4696,-4.4646,-4.4643,-4.4641,-4.4639,0,-4.4373,-4.4339,-4.4488,-4.4492,-4.4496,-4.4605,-4.4608,-4.469,-4.4671,-4.4782,-4.4805,-4.4776,-4.4864,-4.4826,-4.4919,-4.4897,-4.5077,-4.5043,-4.5067,-4.5058,-4.5192,-4.518,-4.5633,-4.5689,-4.5274,-4.5278,-4.5282,0,-4.4575,-4.4676,-4.469,-4.4742,-4.4758,-4.4842,-4.4887,-4.4831,-4.4883,-4.4924,-4.5002,-4.5082,-4.5142,-4.5288,-4.5276,-4.5347,-4.5313,-4.5467,-4.5323,-4.5338,-4.5315,-4.5309,-4.5318,-4.5496,-4.55,-4.5504,-4.5507,0,-4.4937,-4.4915,-4.4984,-4.5048,-4.5105,-4.5152,-4.5193,-4.524,-4.5185,-4.5248,-4.5336,-4.5383,-4.5478,-4.5558,-4.5621,-4.5632,-4.5562,-4.5553,-4.5587,-4.5606,-4.5615,-4.5612,-4.5145,-4.5543,-4.5539,-4.5537,-4.5535,-4.5533,-4.5204,-4.5289,-4.5312,-4.5392,-4.5416,-4.5456,-4.5533,-4.5525,-4.5597,-4.5669,-4.5632,-4.5735,-4.5762,-4.5838,-4.5859,-4.5939,-4.5879,-4.5929,-4.5941,-4.5954,-4.5971,-4.5604,-4.5951,-4.595,-4.5949,-4.5948,-4.5947,0,-4.5561,-4.5571,-4.5645,-4.5703,-4.5767,-4.5694,-4.5735,-4.5793,-4.5884,-4.5915,-4.5977,-4.6079,-4.6157,-4.6152,-4.6224,-4.6289,-4.6259,-4.631,-4.6304,-4.6308,-4.6022,-4.5984,-4.6333,-4.6333,-4.6333,-4.6333,-4.6333,-4.6333,-4.5754,-4.5893,-4.5874,-4.6025,-4.6033,-4.6133,-4.6163,-4.6199,-4.6223,-4.6341,-4.6405,-4.64,-4.6417,-4.649,-4.6559,-4.6555,-4.6586,-4.6649,-4.6634,-4.6366,-4.6328,-4.6291,-4.6256,-4.6656,-4.6657,-4.6913,-4.6915,-4.6917]},{"header":{"parameterUnit":"m.s-1","parameterCategory":1,"la1":30.2991,"la2":30.254,"lo1":-89.0895,"lo2":-89.0444,"dy":0.0017,"dx":0.0017,"nx":28,"ny":28,"refTime":"2024-05-10T21:00:00:Z","depth":0,"parameterNumber":3,"parameterNumberName":"V-component_of_WINDS"},"data":[0,0,0,0,0,0,0,0,0,0,0,0,0,0,0,0,0,0,0,0,0,0,0,0,0,0,0,0,0,0,0,0,0,0,0,0,0,0,0,0,0,0,0,0,0,0,0,0,0,0,0,0,0,0,0,0,0,0,-0.8419,-0.8419,0,-0.8427,-0.8427,-0.8427,-0.8436,-0.8436,-0.8436,-0.8437,-0.8444,-0.8444,-0.8444,0,0,0,0,0,0,0,0,0,0,0,0,0,-0.8409,-0.8409,-0.8419,-0.8419,-0.8419,-0.8427,-0.8427,-0.8427,-0.8436,-0.8436,-0.8436,-0.8437,-0.8444,-0.8444,-0.8444,0,0,0,0,0,0,0,0,0,0,0,0,0,-0.8415,-0.8409,-0.8419,-0.8424,-0.8425,-0.8427,-0.8427,-0.8427,-0.8436,-0.8436,-0.8436,-0.8437,-0.8444,-0.8444,-0.8444,-0.8442,0,0,-0.8445,-0.8445,0,0,0,0,0,0,0,0,-0.8414,-0.8415,-0.8423,-0.8424,-0.8425,-0.8431,-0.8427,-0.8432,-0.8436,-0.8432,-0.8437,-0.8437,-0.844,-0.844,-0.8441,-0.8442,-0.8442,-0.8445,-0.8445,-0.8445,-0.8445,0,0,0,0,0,0,0,-0.8414,-0.8415,-0.8422,-0.8424,-0.8424,-0.8426,-0.8427,-0.8428,-0.8435,-0.8432,-0.8433,-0.8434,-0.844,-0.8441,-0.8442,-0.8442,-0.8445,-0.8445,-0.8445,-0.8445,-0.844,-0.844,0,0,0,0,0,0,-0.8413,-0.8414,-0.8422,-0.8422,-0.842,-0.8426,-0.8427,-0.8429,-0.8435,-0.8436,-0.8434,-0.8434,-0.8441,-0.8441,-0.8442,-0.8438,-0.8445,-0.8445,-0.8445,-0.844,-0.844,-0.844,0,0,0,0,0,0,-0.8413,-0.8413,-0.8422,-0.8419,-0.842,-0.8426,-0.8428,-0.8429,-0.843,-0.8436,-0.8437,-0.8434,-0.8441,-0.8442,-0.8441,-0.8439,-0.8445,-0.8445,-0.8441,-0.844,-0.844,-0.8432,0,0,0,0,0,0,-0.8412,-0.8413,-0.8413,-0.8419,-0.842,-0.8422,-0.8427,-0.8429,-0.843,-0.8431,-0.8436,-0.8437,-0.8441,-0.8441,-0.8442,-0.8439,-0.8445,-0.8441,-0.844,-0.844,-0.8432,-0.8431,-0.843,0,0,0,0,0,-0.8412,-0.841,-0.8413,-0.8414,-0.8419,-0.8421,-0.8422,-0.8427,-0.843,-0.8429,-0.8433,-0.8437,-0.8439,-0.8441,-0.8442,-0.8439,-0.8441,-0.8441,-0.844,-0.8433,-0.8431,-0.843,0,0,0,0,0,0,-0.8404,-0.8411,-0.8414,-0.8414,-0.8417,-0.8423,-0.8422,-0.8426,-0.8428,-0.8428,-0.8434,-0.8435,-0.8434,-0.8437,-0.8439,-0.8436,-0.844,-0.844,-0.8435,-0.8433,-0.8432,-0.8432,-0.8446,0,0,0,0,0,-0.8402,-0.8404,-0.841,-0.8409,-0.8411,-0.8416,-0.8417,-0.8421,-0.8424,-0.8425,-0.8429,-0.8431,-0.8432,-0.8433,-0.8434,-0.8432,-0.8433,-0.8431,-0.843,-0.8429,-0.8429,-0.8427,-0.8426,-0.8438,-0.8438,-0.8438,0,0,-0.8399,-0.8403,-0.8404,-0.8408,-0.841,-0.8411,-0.8417,-0.8418,-0.8418,-0.8425,-0.8425,-0.8428,-0.8431,-0.8429,-0.8429,-0.8431,-0.8425,-0.8428,-0.8428,-0.8428,-0.8426,-0.8425,-0.8424,-0.8438,-0.8438,-0.8438,0,0,-0.8393,-0.8396,-0.8396,-0.8398,-0.8402,-0.8406,-0.8405,-0.841,-0.8412,-0.8412,-0.8417,-0.8418,-0.842,-0.8422,-0.8423,-0.8416,-0.842,-0.8416,-0.8411,-0.8409,-0.8408,-0.8407,-0.8405,-0.8403,-0.8416,-0.8416,-0.8416,0,-0.8388,-0.839,-0.8395,-0.8396,-0.8397,-0.8403,-0.8402,-0.8404,-0.8408,-0.8409,-0.8411,-0.8413,-0.8416,-0.8415,-0.8413,-0.8414,-0.8413,-0.8416,-0.8408,-0.8407,-0.8406,-0.8404,-0.8403,-0.8415,-0.8415,-0.8415,-0.8415,0,-0.8384,-0.8385,-0.8384,-0.8387,-0.8389,-0.8388,-0.8393,-0.8393,-0.8396,-0.8399,-0.8399,-0.8402,-0.8404,-0.8403,-0.8407,-0.8402,-0.8404,-0.8407,-0.8412,-0.8405,-0.8402,-0.8401,-0.8415,-0.8415,-0.8415,-0.8415,0,0,-0.8374,-0.838,-0.8379,-0.8381,-0.8385,-0.8385,-0.8385,-0.8387,-0.8387,-0.8389,-0.8388,-0.8389,-0.8392,-0.8393,-0.8396,-0.8395,-0.8389,-0.8398,-0.8398,-0.8396,-0.8383,-0.8381,-0.838,-0.8391,-0.8391,-0.8391,-0.8383,0,-0.8369,-0.8369,-0.8373,-0.8371,-0.8372,-0.8377,-0.8376,-0.8378,-0.838,-0.8381,-0.8383,-0.8384,-0.8388,-0.8388,-0.8387,-0.839,-0.8386,-0.839,-0.839,-0.839,-0.8389,-0.8379,-0.8376,-0.8369,-0.8382,-0.8382,-0.8382,0,-0.8363,-0.8364,-0.8363,-0.8366,-0.8366,-0.8366,-0.8367,-0.8368,-0.837,-0.8371,-0.8372,-0.8376,-0.8375,-0.8379,-0.8377,-0.838,-0.838,-0.8381,-0.8381,-0.8381,-0.8386,-0.8378,-0.8367,-0.8366,-0.8381,-0.8381,-0.8381,0,-0.8355,-0.8357,-0.8356,-0.8357,-0.8361,-0.836,-0.8362,-0.8364,-0.8365,-0.8366,-0.8366,-0.8367,-0.8367,-0.8367,-0.837,-0.8373,-0.8368,-0.8373,-0.8369,-0.8369,-0.8368,-0.8368,-0.8356,-0.8368,-0.8368,-0.8368,-0.8368,0,-0.8349,-0.8348,-0.8353,-0.8352,-0.8351,-0.8355,-0.8353,-0.8355,-0.8357,-0.8356,-0.836,-0.836,-0.8364,-0.8364,-0.8366,-0.8364,-0.8364,-0.8365,-0.8366,-0.8365,-0.8365,-0.8365,-0.8366,-0.8368,-0.8368,-0.8368,-0.8368,0,-0.8341,-0.8344,-0.8344,-0.8347,-0.8348,-0.8346,-0.8349,-0.8348,-0.835,-0.835,-0.835,-0.8353,-0.8353,-0.8356,-0.8356,-0.8357,-0.8354,-0.8356,-0.8353,-0.8354,-0.835,-0.835,-0.8338,-0.8336,-0.8349,-0.8349,-0.8349,0,-0.8337,-0.8336,-0.8339,-0.8339,-0.834,-0.834,-0.834,-0.8344,-0.8344,-0.8345,-0.8344,-0.8344,-0.8344,-0.8343,-0.8346,-0.8345,-0.8347,-0.8343,-0.8347,-0.8346,-0.8347,-0.8347,-0.8346,-0.8342,-0.8342,-0.8342,-0.8341,0,-0.8329,-0.833,-0.8331,-0.8331,-0.8331,-0.8332,-0.8333,-0.8333,-0.8336,-0.8336,-0.8336,-0.8336,-0.8336,-0.8335,-0.8335,-0.8336,-0.8339,-0.834,-0.8339,-0.8338,-0.8337,-0.8337,-0.8351,-0.834,-0.834,-0.834,-0.8341,-0.8341,-0.8322,-0.8322,-0.8323,-0.8323,-0.8324,-0.8325,-0.8324,-0.8326,-0.8325,-0.8326,-0.8328,-0.8327,-0.8328,-0.8328,-0.8329,-0.8327,-0.8329,-0.8328,-0.8328,-0.8328,-0.8327,-0.8337,-0.8327,-0.8328,-0.8328,-0.8328,-0.8328,0,-0.8315,-0.8316,-0.8315,-0.8316,-0.8316,-0.8319,-0.8319,-0.8319,-0.8318,-0.8319,-0.8319,-0.8317,-0.8317,-0.8319,-0.8318,-0.8317,-0.8318,-0.8316,-0.8317,-0.8317,-0.8325,-0.8326,-0.8315,-0.8315,-0.8315,-0.8315,-0.8315,-0.8315,-0.831,-0.8309,-0.831,-0.8309,-0.831,-0.8309,-0.8309,-0.8309,-0.8309,-0.8308,-0.8308,-0.8309,-0.8309,-0.8309,-0.8308,-0.8308,-0.8308,-0.8306,-0.8307,-0.8315,-0.8316,-0.8317,-0.8318,-0.8306,-0.8306,-0.8298,-0.8298,-0.8298]}]]